| time (UTC) | temp F | wind direction | speed MPH | gust MPH | rain 1hr in | rain 24hr in | rain mn in | humidity % | barometer mb |
| 20260509064632 | 53 | 246 | 2.0 | 4.0 | 0.00 | 0.00 | 0.00 | 49 | 1018.8 |
| 20260509064019 | 53 | 220 | 1.0 | 5.0 | 0.00 | 0.00 | 0.00 | 49 | 1018.7 |
| 20260509063540 | 53 | 254 | 2.0 | 5.0 | 0.00 | 0.00 | 0.00 | 48 | 1018.8 |
| 20260509063133 | 53 | 243 | 1.0 | 4.0 | 0.00 | 0.00 | 0.00 | 49 | 1018.7 |
| 20260509062514 | 53 | 242 | 0.0 | 5.0 | 0.00 | 0.00 | 0.00 | 48 | 1018.8 |
| 20260509062025 | 53 | 234 | 2.0 | 5.0 | 0.00 | 0.00 | 0.00 | 48 | 1018.8 |
| 20260509061616 | 53 | 216 | 2.0 | 5.0 | 0.00 | 0.00 | 0.00 | 47 | 1018.6 |
| 20260509061036 | 54 | 237 | 1.0 | 4.0 | 0.00 | 0.00 | 0.00 | 47 | 1018.8 |
| 20260509060530 | 54 | 221 | 2.0 | 10.0 | 0.00 | 0.00 | 0.00 | 47 | 1018.6 |
| 20260509055548 | 54 | 238 | 2.0 | 7.0 | 0.00 | 0.00 | 0.00 | 46 | 1018.7 |
| 20260509055053 | 54 | 214 | 2.0 | 7.0 | 0.00 | 0.00 | 0.00 | 46 | 1018.7 |
| 20260509054602 | 54 | 233 | 2.0 | 5.0 | 0.00 | 0.00 | 0.00 | 46 | 1018.6 |
| 20260509054037 | 54 | 238 | 2.0 | 5.0 | 0.00 | 0.00 | 0.00 | 46 | 1018.7 |
| 20260509053525 | 54 | 65 | 2.0 | 5.0 | 0.00 | 0.00 | 0.00 | 46 | 1018.7 |
| 20260509053143 | 54 | 226 | 2.0 | 5.0 | 0.00 | 0.00 | 0.00 | 45 | 1018.6 |
| 20260509052522 | 54 | 236 | 2.0 | 5.0 | 0.00 | 0.00 | 0.00 | 46 | 1018.8 |
| 20260509052019 | 54 | 186 | 2.0 | 5.0 | 0.00 | 0.00 | 0.00 | 46 | 1018.7 |
| 20260509051557 | 54 | 312 | 1.0 | 5.0 | 0.00 | 0.00 | 0.00 | 45 | 1018.7 |
| 20260509051040 | 54 | 246 | 2.0 | 5.0 | 0.00 | 0.00 | 0.00 | 45 | 1018.4 |
| 20260509050544 | 54 | 232 | 2.0 | 7.0 | 0.00 | 0.00 | 0.00 | 45 | 1018.3 |
| 20260509050113 | 55 | 238 | 3.0 | 7.0 | 0.00 | 0.00 | 0.00 | 44 | 1018.3 |
| 20260509045522 | 55 | 243 | 3.0 | 6.0 | 0.00 | 0.00 | 0.00 | 44 | 1018.4 |
| 20260509045032 | 55 | 255 | 2.0 | 6.0 | 0.00 | 0.00 | 0.00 | 43 | 1018.3 |
| 20260509044609 | 55 | 251 | 2.0 | 6.0 | 0.00 | 0.00 | 0.00 | 42 | 1018.2 |
| 20260509044032 | 55 | 244 | 2.0 | 7.0 | 0.00 | 0.00 | 0.00 | 43 | 1018.2 |
| 20260509043526 | 55 | 242 | 2.0 | 7.0 | 0.00 | 0.00 | 0.00 | 42 | 1018.2 |
| 20260509043108 | 55 | 232 | 3.0 | 8.0 | 0.00 | 0.00 | 0.00 | 42 | 1018.0 |
| 20260509042536 | 55 | 264 | 2.0 | 8.0 | 0.00 | 0.00 | 0.00 | 42 | 1017.9 |
| 20260509042039 | 55 | 245 | 2.0 | 6.0 | 0.00 | 0.00 | 0.00 | 42 | 1017.9 |
| 20260509041543 | 55 | 238 | 2.0 | 6.0 | 0.00 | 0.00 | 0.00 | 41 | 1017.9 |
| 20260509041016 | 55 | 253 | 2.0 | 6.0 | 0.00 | 0.00 | 0.00 | 41 | 1017.9 |
| 20260509040606 | 55 | 262 | 2.0 | 7.0 | 0.00 | 0.00 | 0.00 | 41 | 1017.9 |
| 20260509040059 | 55 | 210 | 3.0 | 7.0 | 0.00 | 0.00 | 0.00 | 40 | 1017.8 |
| 20260509035524 | 55 | 235 | 2.0 | 6.0 | 0.00 | 0.00 | 0.00 | 40 | 1017.8 |
| 20260509035030 | 56 | 240 | 3.0 | 6.0 | 0.00 | 0.00 | 0.00 | 40 | 1017.7 |
| 20260509034632 | 56 | 232 | 2.0 | 7.0 | 0.00 | 0.00 | 0.00 | 39 | 1017.7 |
| 20260509034031 | 56 | 237 | 1.0 | 7.0 | 0.00 | 0.00 | 0.00 | 39 | 1017.7 |
| 20260509033529 | 56 | 198 | 1.0 | 6.0 | 0.00 | 0.00 | 0.00 | 39 | 1017.5 |
| 20260509033116 | 56 | 240 | 2.0 | 5.0 | 0.00 | 0.00 | 0.00 | 39 | 1017.4 |
| 20260509032545 | 57 | 242 | 2.0 | 7.0 | 0.00 | 0.00 | 0.00 | 38 | 1017.3 |
| 20260509032026 | 57 | 225 | 3.0 | 7.0 | 0.00 | 0.00 | 0.00 | 37 | 1017.1 |
| 20260509031631 | 57 | 244 | 2.0 | 4.0 | 0.00 | 0.00 | 0.00 | 37 | 1017.0 |
| 20260509031016 | 57 | 212 | 2.0 | 7.0 | 0.00 | 0.00 | 0.00 | 37 | 1016.9 |
| 20260509030531 | 57 | 238 | 2.0 | 7.0 | 0.00 | 0.00 | 0.00 | 37 | 1016.8 |
| 20260509030108 | 58 | 193 | 3.0 | 7.0 | 0.00 | 0.00 | 0.00 | 36 | 1016.7 |
| 20260509025536 | 58 | 238 | 3.0 | 9.0 | 0.00 | 0.00 | 0.00 | 35 | 1016.7 |
| 20260509025030 | 58 | 219 | 3.0 | 9.0 | 0.00 | 0.00 | 0.00 | 35 | 1016.5 |
| 20260509024623 | 58 | 249 | 2.0 | 6.0 | 0.00 | 0.00 | 0.00 | 34 | 1016.5 |
| 20260509024017 | 58 | 208 | 2.0 | 7.0 | 0.00 | 0.00 | 0.00 | 35 | 1016.5 |
| 20260509023525 | 58 | 219 | 1.0 | 7.0 | 0.00 | 0.00 | 0.00 | 35 | 1016.5 |
| 20260509023124 | 59 | 286 | 1.0 | 7.0 | 0.00 | 0.00 | 0.00 | 34 | 1016.3 |
| 20260509022520 | 59 | 225 | 2.0 | 7.0 | 0.00 | 0.00 | 0.00 | 33 | 1016.1 |
| 20260509022042 | 60 | 244 | 2.0 | 10.0 | 0.00 | 0.00 | 0.00 | 32 | 1016.1 |
| 20260509021614 | 60 | 213 | 3.0 | 10.0 | 0.00 | 0.00 | 0.00 | 32 | 1016.1 |
| 20260509021039 | 60 | 268 | 2.0 | 8.0 | 0.00 | 0.00 | 0.00 | 32 | 1016.2 |
| 20260509020534 | 60 | 306 | 2.0 | 4.0 | 0.00 | 0.00 | 0.00 | 32 | 1016.2 |
| 20260509020126 | 60 | 232 | 2.0 | 8.0 | 0.00 | 0.00 | 0.00 | 31 | 1016.2 |
| 20260509015531 | 61 | 213 | 2.0 | 7.0 | 0.00 | 0.00 | 0.00 | 31 | 1016.2 |
| 20260509015042 | 61 | 197 | 2.0 | 5.0 | 0.00 | 0.00 | 0.00 | 31 | 1016.1 |
| 20260509014540 | 62 | 226 | 1.0 | 5.0 | 0.00 | 0.00 | 0.00 | 30 | 1016.1 |
| 20260509014040 | 62 | 188 | 2.0 | 10.0 | 0.00 | 0.00 | 0.00 | 31 | 1016.1 |
| 20260509013522 | 63 | 295 | 3.0 | 10.0 | 0.00 | 0.00 | 0.00 | 30 | 1015.8 |
| 20260509013058 | 63 | 166 | 2.0 | 10.0 | 0.00 | 0.00 | 0.00 | 30 | 1016.0 |
| 20260509012532 | 63 | 279 | 2.0 | 8.0 | 0.00 | 0.00 | 0.00 | 29 | 1016.0 |
| 20260509012041 | 64 | 332 | 2.0 | 8.0 | 0.00 | 0.00 | 0.00 | 29 | 1015.9 |
| 20260509011631 | 64 | 208 | 3.0 | 10.0 | 0.00 | 0.00 | 0.00 | 28 | 1015.8 |
| 20260509011020 | 65 | 277 | 1.0 | 10.0 | 0.00 | 0.00 | 0.00 | 28 | 1015.8 |
| 20260509010533 | 65 | 258 | 2.0 | 9.0 | 0.00 | 0.00 | 0.00 | 28 | 1015.6 |
| 20260509010056 | 65 | 337 | 3.0 | 8.0 | 0.00 | 0.00 | 0.00 | 28 | 1015.6 |
| 20260509005534 | 65 | 235 | 3.0 | 10.0 | 0.00 | 0.00 | 0.00 | 29 | 1015.4 |
| 20260509005017 | 65 | 234 | 5.0 | 19.0 | 0.00 | 0.00 | 0.00 | 28 | 1015.5 |
| 20260509004613 | 65 | 194 | 1.0 | 19.0 | 0.00 | 0.00 | 0.00 | 29 | 1015.4 |
| 20260509004039 | 65 | 240 | 2.0 | 13.0 | 0.00 | 0.00 | 0.00 | 27 | 1015.3 |
| 20260509003524 | 66 | 292 | 5.0 | 13.0 | 0.00 | 0.00 | 0.00 | 26 | 1015.4 |
| 20260509003049 | 66 | 193 | 2.0 | 6.0 | 0.00 | 0.00 | 0.00 | 26 | 1015.5 |
| 20260509002544 | 66 | 48 | 2.0 | 7.0 | 0.00 | 0.00 | 0.00 | 28 | 1015.6 |
| 20260509002030 | 66 | 289 | 0.0 | 7.0 | 0.00 | 0.00 | 0.00 | 28 | 1015.7 |
| 20260509001622 | 66 | 194 | 1.0 | 7.0 | 0.00 | 0.00 | 0.00 | 28 | 1015.5 |
| 20260509001041 | 66 | 263 | 1.0 | 6.0 | 0.00 | 0.00 | 0.00 | 25 | 1015.5 |
| 20260509000520 | 67 | 60 | 1.0 | 7.0 | 0.00 | 0.00 | 0.00 | 26 | 1015.6 |
| 20260509000049 | 67 | 290 | 1.0 | 6.0 | 0.00 | 0.00 | 0.00 | 26 | 1015.5 |
| 20260508235522 | 68 | 304 | 2.0 | 9.0 | 0.00 | 0.00 | 0.00 | 25 | 1015.5 |
| 20260508235037 | 68 | 329 | 2.0 | 9.0 | 0.00 | 0.00 | 0.00 | 25 | 1015.6 |
| 20260508234559 | 68 | 234 | 2.0 | 9.0 | 0.00 | 0.00 | 0.00 | 26 | 1015.6 |
| 20260508234018 | 67 | 53 | 3.0 | 8.0 | 0.00 | 0.00 | 0.00 | 26 | 1015.5 |
| 20260508233534 | 67 | 246 | 1.0 | 7.0 | 0.00 | 0.00 | 0.00 | 27 | 1015.6 |
| 20260508233126 | 66 | 271 | 0.0 | 8.0 | 0.00 | 0.00 | 0.00 | 28 | 1015.6 |
| 20260508232533 | 65 | 234 | 2.0 | 6.0 | 0.00 | 0.00 | 0.00 | 27 | 1015.5 |
| 20260508232042 | 65 | 248 | 2.0 | 7.0 | 0.00 | 0.00 | 0.00 | 27 | 1015.7 |
| 20260508231633 | 65 | 241 | 2.0 | 5.0 | 0.00 | 0.00 | 0.00 | 28 | 1015.8 |
| 20260508231044 | 65 | 24 | 2.0 | 12.0 | 0.00 | 0.00 | 0.00 | 28 | 1015.6 |
| 20260508230537 | 66 | 289 | 3.0 | 12.0 | 0.00 | 0.00 | 0.00 | 27 | 1015.7 |
| 20260508230127 | 67 | 261 | 3.0 | 10.0 | 0.00 | 0.00 | 0.00 | 28 | 1015.6 |
| 20260508225525 | 67 | 317 | 2.0 | 10.0 | 0.00 | 0.00 | 0.00 | 26 | 1015.5 |
| 20260508225024 | 67 | 352 | 2.0 | 9.0 | 0.00 | 0.00 | 0.00 | 26 | 1015.3 |
| 20260508224603 | 67 | 175 | 3.0 | 9.0 | 0.00 | 0.00 | 0.00 | 27 | 1015.4 |
| 20260508224030 | 67 | 156 | 3.0 | 7.0 | 0.00 | 0.00 | 0.00 | 26 | 1015.3 |
| 20260508223526 | 68 | 231 | 2.0 | 9.0 | 0.00 | 0.00 | 0.00 | 25 | 1015.3 |
| 20260508223120 | 68 | 292 | 3.0 | 9.0 | 0.00 | 0.00 | 0.00 | 26 | 1015.2 |
| 20260508222521 | 67 | 244 | 2.0 | 10.0 | 0.00 | 0.00 | 0.00 | 26 | 1015.2 |
| 20260508222034 | 67 | 302 | 3.0 | 9.0 | 0.00 | 0.00 | 0.00 | 27 | 1015.2 |
| 20260508221629 | 67 | 267 | 3.0 | 11.0 | 0.00 | 0.00 | 0.00 | 26 | 1015.2 |
| 20260508221041 | 67 | 338 | 4.0 | 11.0 | 0.00 | 0.00 | 0.00 | 24 | 1015.2 |
| 20260508220533 | 67 | 262 | 2.0 | 9.0 | 0.00 | 0.00 | 0.00 | 26 | 1015.2 |
| 20260508220136 | 67 | 217 | 4.0 | 12.0 | 0.00 | 0.00 | 0.00 | 26 | 1015.1 |
| 20260508215531 | 67 | 269 | 3.0 | 14.0 | 0.00 | 0.00 | 0.00 | 26 | 1015.1 |
| 20260508215045 | 67 | 310 | 3.0 | 14.0 | 0.00 | 0.00 | 0.00 | 26 | 1015.1 |
| 20260508214644 | 67 | 279 | 2.0 | 9.0 | 0.00 | 0.00 | 0.00 | 25 | 1015.1 |
| 20260508214045 | 68 | 251 | 3.0 | 9.0 | 0.00 | 0.00 | 0.00 | 25 | 1015.1 |
| 20260508213536 | 68 | 225 | 3.0 | 8.0 | 0.00 | 0.00 | 0.00 | 25 | 1015.1 |
| 20260508213116 | 68 | 252 | 3.0 | 9.0 | 0.00 | 0.00 | 0.00 | 26 | 1015.0 |
| 20260508212535 | 67 | 291 | 2.0 | 9.0 | 0.00 | 0.00 | 0.00 | 27 | 1014.8 |
| 20260508212029 | 67 | 360 | 3.0 | 13.0 | 0.00 | 0.00 | 0.00 | 26 | 1014.8 |
| 20260508211556 | 67 | 159 | 4.0 | 13.0 | 0.00 | 0.00 | 0.00 | 25 | 1014.8 |
| 20260508211041 | 67 | 341 | 2.0 | 11.0 | 0.00 | 0.00 | 0.00 | 26 | 1014.7 |
| 20260508210519 | 67 | 194 | 2.0 | 8.0 | 0.00 | 0.00 | 0.00 | 25 | 1015.0 |
| 20260508210114 | 67 | 74 | 1.0 | 8.0 | 0.00 | 0.00 | 0.00 | 25 | 1014.9 |
| 20260508205527 | 67 | 53 | 1.0 | 8.0 | 0.00 | 0.00 | 0.00 | 25 | 1014.8 |
| 20260508205045 | 67 | 68 | 2.0 | 8.0 | 0.00 | 0.00 | 0.00 | 25 | 1014.7 |
| 20260508204617 | 67 | 238 | 4.0 | 10.0 | 0.00 | 0.00 | 0.00 | 24 | 1014.6 |
| 20260508204041 | 67 | 257 | 4.0 | 10.0 | 0.00 | 0.00 | 0.00 | 24 | 1014.5 |
| 20260508203539 | 67 | 214 | 4.0 | 9.0 | 0.00 | 0.00 | 0.00 | 25 | 1014.4 |
| 20260508203120 | 67 | 304 | 3.0 | 7.0 | 0.00 | 0.00 | 0.00 | 24 | 1014.3 |
| 20260508202539 | 67 | 223 | 2.0 | 6.0 | 0.00 | 0.00 | 0.00 | 23 | 1014.3 |
| 20260508202045 | 67 | 285 | 2.0 | 8.0 | 0.00 | 0.00 | 0.00 | 23 | 1014.2 |
| 20260508201630 | 67 | 190 | 1.0 | 6.0 | 0.00 | 0.00 | 0.00 | 22 | 1014.1 |
| 20260508201018 | 68 | 294 | 2.0 | 9.0 | 0.00 | 0.00 | 0.00 | 22 | 1014.0 |
| 20260508200542 | 68 | 309 | 3.0 | 9.0 | 0.00 | 0.00 | 0.00 | 23 | 1014.1 |
| 20260508200155 | 68 | 26 | 2.0 | 9.0 | 0.00 | 0.00 | 0.00 | 23 | 1014.0 |
| 20260508195545 | 68 | 237 | 2.0 | 9.0 | 0.00 | 0.00 | 0.00 | 21 | 1013.9 |
| 20260508195019 | 68 | 276 | 3.0 | 7.0 | 0.00 | 0.00 | 0.00 | 20 | 1013.8 |
| 20260508194610 | 69 | 165 | 3.0 | 10.0 | 0.00 | 0.00 | 0.00 | 21 | 1013.9 |
| 20260508194028 | 69 | 12 | 2.0 | 9.0 | 0.00 | 0.00 | 0.00 | 22 | 1013.9 |
| 20260508193546 | 70 | 106 | 1.0 | 9.0 | 0.00 | 0.00 | 0.00 | 22 | 1013.9 |
| 20260508193140 | 70 | 239 | 2.0 | 9.0 | 0.00 | 0.00 | 0.00 | 23 | 1013.8 |
| 20260508192534 | 69 | 337 | 3.0 | 6.0 | 0.00 | 0.00 | 0.00 | 25 | 1013.6 |
| 20260508192047 | 70 | 282 | 3.0 | 7.0 | 0.00 | 0.00 | 0.00 | 24 | 1013.6 |
| 20260508191609 | 69 | 49 | 1.0 | 7.0 | 0.00 | 0.00 | 0.00 | 26 | 1013.6 |
| 20260508191032 | 68 | 288 | 3.0 | 10.0 | 0.00 | 0.00 | 0.00 | 24 | 1013.9 |
| 20260508190529 | 68 | 286 | 5.0 | 10.0 | 0.00 | 0.00 | 0.00 | 23 | 1013.9 |
| 20260508190139 | 67 | 257 | 2.0 | 8.0 | 0.00 | 0.00 | 0.00 | 26 | 1013.8 |
| 20260508185524 | 67 | 314 | 2.0 | 5.0 | 0.00 | 0.00 | 0.00 | 25 | 1013.7 |
| 20260508185023 | 68 | 190 | 2.0 | 8.0 | 0.00 | 0.00 | 0.00 | 25 | 1013.7 |
| 20260508184551 | 68 | 87 | 2.0 | 8.0 | 0.00 | 0.00 | 0.00 | 26 | 1013.8 |
| 20260508184019 | 68 | 315 | 1.0 | 8.0 | 0.00 | 0.00 | 0.00 | 24 | 1013.9 |
| 20260508183518 | 68 | 57 | 2.0 | 9.0 | 0.00 | 0.00 | 0.00 | 24 | 1013.9 |
| 20260508183109 | 69 | 306 | 3.0 | 9.0 | 0.00 | 0.00 | 0.00 | 24 | 1013.8 |
| 20260508182533 | 68 | 118 | 2.0 | 9.0 | 0.00 | 0.00 | 0.00 | 27 | 1013.7 |
| 20260508182020 | 68 | 70 | 3.0 | 8.0 | 0.00 | 0.00 | 0.00 | 25 | 1013.7 |
| 20260508181645 | 67 | 237 | 3.0 | 8.0 | 0.00 | 0.00 | 0.00 | 27 | 1013.9 |
| 20260508181031 | 67 | 245 | 2.0 | 9.0 | 0.00 | 0.00 | 0.00 | 26 | 1013.7 |
| 20260508180530 | 68 | 286 | 2.0 | 9.0 | 0.00 | 0.00 | 0.00 | 27 | 1013.6 |
| 20260508180136 | 68 | 235 | 2.0 | 9.0 | 0.00 | 0.00 | 0.00 | 27 | 1013.7 |
| 20260508175526 | 69 | 300 | 2.0 | 9.0 | 0.00 | 0.00 | 0.00 | 27 | 1013.7 |
| 20260508175018 | 68 | 171 | 2.0 | 9.0 | 0.00 | 0.00 | 0.00 | 27 | 1013.7 |
| 20260508174630 | 67 | 213 | 3.0 | 9.0 | 0.00 | 0.00 | 0.00 | 30 | 1013.7 |
| 20260508174033 | 67 | 329 | 3.0 | 8.0 | 0.00 | 0.00 | 0.00 | 34 | 1013.6 |
| 20260508173542 | 66 | 324 | 3.0 | 7.0 | 0.00 | 0.00 | 0.00 | 31 | 1013.5 |
| 20260508173126 | 65 | 261 | 2.0 | 8.0 | 0.00 | 0.00 | 0.00 | 30 | 1013.5 |
| 20260508172542 | 65 | 265 | 3.0 | 8.0 | 0.00 | 0.00 | 0.00 | 32 | 1013.5 |
| 20260508172039 | 64 | 236 | 2.0 | 9.0 | 0.00 | 0.00 | 0.00 | 31 | 1013.4 |
| 20260508171649 | 64 | 288 | 2.0 | 10.0 | 0.00 | 0.00 | 0.00 | 34 | 1013.3 |
| 20260508171034 | 64 | 249 | 2.0 | 10.0 | 0.00 | 0.00 | 0.00 | 32 | 1013.3 |
| 20260508170530 | 64 | 288 | 2.0 | 7.0 | 0.00 | 0.00 | 0.00 | 34 | 1013.3 |
| 20260508170112 | 64 | 234 | 3.0 | 7.0 | 0.00 | 0.00 | 0.00 | 32 | 1013.3 |
| 20260508165537 | 65 | 263 | 2.0 | 7.0 | 0.00 | 0.00 | 0.00 | 32 | 1013.3 |
| 20260508165031 | 65 | 294 | 3.0 | 7.0 | 0.00 | 0.00 | 0.00 | 32 | 1013.3 |
| 20260508164617 | 65 | 346 | 1.0 | 9.0 | 0.00 | 0.00 | 0.00 | 33 | 1013.3 |
| 20260508164018 | 65 | 286 | 2.0 | 9.0 | 0.00 | 0.00 | 0.00 | 32 | 1013.3 |
| 20260508163541 | 64 | 300 | 2.0 | 11.0 | 0.00 | 0.00 | 0.00 | 38 | 1013.1 |
| 20260508163122 | 63 | 261 | 2.0 | 7.0 | 0.00 | 0.00 | 0.00 | 36 | 1013.1 |
| 20260508162531 | 62 | 46 | 2.0 | 5.0 | 0.00 | 0.00 | 0.00 | 38 | 1013.1 |
| 20260508162017 | 62 | 261 | 3.0 | 6.0 | 0.00 | 0.00 | 0.00 | 41 | 1013.1 |
| 20260508161553 | 60 | 88 | 0.0 | 4.0 | 0.00 | 0.00 | 0.00 | 44 | 1013.2 |
| 20260508161019 | 59 | 182 | 1.0 | 4.0 | 0.00 | 0.00 | 0.00 | 59 | 1013.1 |
| 20260508160536 | 59 | 87 | 0.0 | 2.0 | 0.00 | 0.00 | 0.00 | 62 | 1013.1 |
| 20260508160124 | 58 | 218 | 0.0 | 2.0 | 0.00 | 0.00 | 0.00 | 62 | 1013.3 |
| 20260508155536 | 58 | 122 | 0.0 | 2.0 | 0.00 | 0.00 | 0.00 | 64 | 1013.3 |
| 20260508155050 | 57 | 25 | 0.0 | 2.0 | 0.00 | 0.00 | 0.00 | 67 | 1013.2 |
| 20260508154620 | 57 | 46 | 0.0 | 1.0 | 0.00 | 0.00 | 0.00 | 68 | 1013.1 |
| 20260508154100 | 57 | 82 | 0.0 | 1.0 | 0.00 | 0.00 | 0.00 | 68 | 1013.0 |
| 20260508153608 | 56 | 107 | 0.0 | 0.0 | 0.00 | 0.00 | 0.00 | 69 | 1013.0 |
| 20260508153151 | 56 | 82 | 0.0 | 0.0 | 0.00 | 0.00 | 0.00 | 69 | 1013.1 |
| 20260508152526 | 56 | 83 | 0.0 | 0.0 | 0.00 | 0.00 | 0.00 | 70 | 1013.1 |
| 20260508152037 | 55 | 182 | 0.0 | 0.0 | 0.00 | 0.00 | 0.00 | 71 | 1013.2 |
| 20260508151635 | 55 | 182 | 0.0 | 0.0 | 0.00 | 0.00 | 0.00 | 70 | 1013.0 |
| 20260508151021 | 55 | 182 | 0.0 | 0.0 | 0.00 | 0.00 | 0.00 | 70 | 1013.0 |
| 20260508150530 | 54 | 182 | 0.0 | 0.0 | 0.00 | 0.00 | 0.00 | 70 | 1013.3 |
| 20260508150128 | 54 | 182 | 0.0 | 0.0 | 0.00 | 0.00 | 0.00 | 71 | 1013.1 |
| 20260508145532 | 54 | 184 | 0.0 | 0.0 | 0.00 | 0.00 | 0.00 | 71 | 1013.1 |
| 20260508145036 | 53 | 184 | 0.0 | 0.0 | 0.00 | 0.00 | 0.00 | 71 | 1013.1 |
| 20260508144639 | 53 | 176 | 0.0 | 0.0 | 0.00 | 0.00 | 0.00 | 71 | 1013.3 |
| 20260508144033 | 53 | 175 | 0.0 | 0.0 | 0.00 | 0.00 | 0.00 | 71 | 1013.2 |
| 20260508143531 | 53 | 175 | 0.0 | 0.0 | 0.00 | 0.00 | 0.00 | 71 | 1013.1 |
| 20260508143138 | 52 | 177 | 0.0 | 0.0 | 0.00 | 0.00 | 0.00 | 72 | 1013.2 |
| 20260508142532 | 52 | 177 | 0.0 | 0.0 | 0.00 | 0.00 | 0.00 | 72 | 1013.2 |
| 20260508142052 | 52 | 177 | 0.0 | 1.0 | 0.00 | 0.00 | 0.00 | 72 | 1013.2 |
| 20260508141651 | 52 | 178 | 0.0 | 1.0 | 0.00 | 0.00 | 0.00 | 72 | 1013.1 |
| 20260508141023 | 52 | 241 | 0.0 | 0.0 | 0.00 | 0.00 | 0.00 | 75 | 1013.3 |
| 20260508140516 | 51 | 232 | 0.0 | 0.0 | 0.00 | 0.00 | 0.00 | 74 | 1013.3 |
| 20260508140035 | 51 | 232 | 0.0 | 0.0 | 0.00 | 0.00 | 0.00 | 74 | 1013.2 |
| 20260508135529 | 51 | 232 | 0.0 | 0.0 | 0.00 | 0.00 | 0.00 | 73 | 1013.1 |
| 20260508135038 | 51 | 232 | 0.0 | 0.0 | 0.00 | 0.00 | 0.00 | 73 | 1013.1 |
| 20260508134629 | 51 | 232 | 0.0 | 0.0 | 0.00 | 0.00 | 0.00 | 73 | 1013.0 |
| 20260508134109 | 51 | 232 | 0.0 | 0.0 | 0.00 | 0.00 | 0.00 | 73 | 1013.0 |
| 20260508133532 | 51 | 232 | 0.0 | 0.0 | 0.00 | 0.00 | 0.00 | 73 | 1013.0 |
| 20260508133152 | 51 | 232 | 0.0 | 0.0 | 0.00 | 0.00 | 0.00 | 71 | 1013.2 |
| 20260508132520 | 51 | 232 | 0.0 | 0.0 | 0.00 | 0.00 | 0.00 | 72 | 1013.1 |
| 20260508132033 | 51 | 232 | 0.0 | 0.0 | 0.00 | 0.00 | 0.00 | 71 | 1013.1 |
| 20260508131619 | 51 | 232 | 0.0 | 0.0 | 0.00 | 0.00 | 0.00 | 71 | 1013.1 |
| 20260508131045 | 51 | 232 | 0.0 | 1.0 | 0.00 | 0.00 | 0.00 | 70 | 1013.0 |
| 20260508130541 | 51 | 232 | 0.0 | 2.0 | 0.00 | 0.00 | 0.00 | 71 | 1012.9 |
| 20260508130145 | 51 | 232 | 0.0 | 3.0 | 0.00 | 0.00 | 0.00 | 71 | 1012.9 |
| 20260508125538 | 51 | 232 | 1.0 | 3.0 | 0.00 | 0.00 | 0.00 | 71 | 1013.0 |
| 20260508125038 | 50 | 243 | 1.0 | 2.0 | 0.00 | 0.00 | 0.00 | 71 | 1013.0 |
| 20260508124644 | 50 | 230 | 1.0 | 3.0 | 0.00 | 0.00 | 0.00 | 71 | 1012.9 |
| 20260508124033 | 50 | 230 | 2.0 | 3.0 | 0.00 | 0.00 | 0.00 | 71 | 1012.8 |
| 20260508123529 | 50 | 236 | 2.0 | 3.0 | 0.00 | 0.00 | 0.00 | 70 | 1012.9 |
| 20260508123145 | 50 | 227 | 1.0 | 3.0 | 0.00 | 0.00 | 0.00 | 70 | 1012.7 |
| 20260508122519 | 50 | 225 | 2.0 | 3.0 | 0.00 | 0.00 | 0.00 | 71 | 1012.8 |
| 20260508122041 | 50 | 233 | 2.0 | 3.0 | 0.00 | 0.00 | 0.00 | 71 | 1012.8 |
| 20260508121654 | 50 | 235 | 1.0 | 4.0 | 0.00 | 0.00 | 0.00 | 71 | 1012.8 |
| 20260508121020 | 50 | 235 | 2.0 | 4.0 | 0.00 | 0.00 | 0.00 | 71 | 1012.7 |
| 20260508120535 | 50 | 246 | 3.0 | 4.0 | 0.00 | 0.00 | 0.00 | 70 | 1012.7 |
| 20260508120208 | 50 | 243 | 2.0 | 4.0 | 0.00 | 0.00 | 0.00 | 70 | 1012.8 |
| 20260508115516 | 51 | 230 | 1.0 | 3.0 | 0.00 | 0.00 | 0.00 | 70 | 1012.8 |
| 20260508115023 | 51 | 229 | 1.0 | 3.0 | 0.00 | 0.00 | 0.00 | 70 | 1012.9 |
| 20260508114628 | 51 | 228 | 1.0 | 3.0 | 0.00 | 0.00 | 0.00 | 69 | 1012.8 |
| 20260508114028 | 51 | 229 | 1.0 | 3.0 | 0.00 | 0.00 | 0.00 | 69 | 1012.8 |
| 20260508113530 | 51 | 225 | 2.0 | 4.0 | 0.00 | 0.00 | 0.00 | 68 | 1012.8 |
| 20260508113106 | 51 | 238 | 3.0 | 4.0 | 0.00 | 0.00 | 0.00 | 69 | 1012.8 |
| 20260508112523 | 51 | 238 | 2.0 | 3.0 | 0.00 | 0.00 | 0.00 | 69 | 1012.9 |
| 20260508112027 | 51 | 229 | 2.0 | 4.0 | 0.00 | 0.00 | 0.00 | 69 | 1012.9 |
| 20260508111632 | 51 | 222 | 2.0 | 4.0 | 0.00 | 0.00 | 0.00 | 68 | 1012.8 |
| 20260508111032 | 51 | 242 | 2.0 | 3.0 | 0.00 | 0.00 | 0.00 | 69 | 1012.9 |
| 20260508110526 | 51 | 240 | 2.0 | 3.0 | 0.00 | 0.00 | 0.00 | 68 | 1012.8 |
| 20260508110116 | 51 | 247 | 1.0 | 3.0 | 0.00 | 0.00 | 0.00 | 68 | 1012.8 |
| 20260508105518 | 51 | 229 | 1.0 | 3.0 | 0.00 | 0.00 | 0.00 | 68 | 1012.9 |
| 20260508105041 | 51 | 229 | 1.0 | 3.0 | 0.00 | 0.00 | 0.00 | 68 | 1012.8 |
| 20260508104644 | 51 | 229 | 2.0 | 3.0 | 0.00 | 0.00 | 0.00 | 68 | 1012.8 |
| 20260508104037 | 51 | 228 | 2.0 | 4.0 | 0.00 | 0.00 | 0.00 | 69 | 1012.8 |
| 20260508103531 | 51 | 239 | 2.0 | 4.0 | 0.00 | 0.00 | 0.00 | 68 | 1012.9 |
| 20260508103118 | 51 | 249 | 2.0 | 4.0 | 0.00 | 0.00 | 0.00 | 68 | 1012.9 |
| 20260508102541 | 51 | 237 | 2.0 | 4.0 | 0.00 | 0.00 | 0.00 | 67 | 1012.8 |
| 20260508102038 | 51 | 254 | 2.0 | 4.0 | 0.00 | 0.00 | 0.00 | 67 | 1012.9 |
| 20260508101643 | 51 | 244 | 2.0 | 4.0 | 0.00 | 0.00 | 0.00 | 67 | 1013.0 |
| 20260508101020 | 51 | 239 | 2.0 | 4.0 | 0.00 | 0.00 | 0.00 | 66 | 1012.9 |
| 20260508100520 | 51 | 230 | 2.0 | 4.0 | 0.00 | 0.00 | 0.00 | 66 | 1013.1 |
| 20260508100125 | 51 | 244 | 2.0 | 4.0 | 0.00 | 0.00 | 0.00 | 67 | 1013.0 |
| 20260508095544 | 52 | 230 | 3.0 | 4.0 | 0.00 | 0.00 | 0.00 | 66 | 1013.1 |
| 20260508095021 | 52 | 239 | 2.0 | 5.0 | 0.00 | 0.00 | 0.00 | 65 | 1013.2 |
| 20260508094615 | 52 | 239 | 2.0 | 5.0 | 0.00 | 0.00 | 0.00 | 65 | 1013.0 |
| 20260508094037 | 52 | 220 | 3.0 | 5.0 | 0.00 | 0.00 | 0.00 | 64 | 1013.2 |
| 20260508093537 | 52 | 228 | 2.0 | 4.0 | 0.00 | 0.00 | 0.00 | 65 | 1013.1 |
| 20260508093116 | 52 | 240 | 2.0 | 5.0 | 0.00 | 0.00 | 0.00 | 64 | 1013.0 |
| 20260508092521 | 52 | 242 | 3.0 | 4.0 | 0.00 | 0.00 | 0.00 | 64 | 1013.0 |
| 20260508092035 | 52 | 239 | 2.0 | 4.0 | 0.00 | 0.00 | 0.00 | 65 | 1013.0 |
| 20260508091617 | 52 | 251 | 2.0 | 4.0 | 0.00 | 0.00 | 0.00 | 64 | 1013.0 |
| 20260508091028 | 52 | 234 | 2.0 | 5.0 | 0.00 | 0.00 | 0.00 | 64 | 1013.1 |
| 20260508090528 | 53 | 231 | 3.0 | 4.0 | 0.00 | 0.00 | 0.00 | 64 | 1013.0 |
| 20260508090114 | 53 | 237 | 2.0 | 4.0 | 0.00 | 0.00 | 0.00 | 64 | 1013.1 |
| 20260508085530 | 53 | 242 | 2.0 | 4.0 | 0.00 | 0.00 | 0.00 | 63 | 1013.1 |
| 20260508085029 | 53 | 225 | 3.0 | 4.0 | 0.00 | 0.00 | 0.00 | 64 | 1013.1 |
| 20260508084642 | 53 | 242 | 1.0 | 4.0 | 0.00 | 0.00 | 0.00 | 64 | 1013.1 |
| 20260508084022 | 53 | 228 | 2.0 | 5.0 | 0.00 | 0.00 | 0.00 | 65 | 1013.1 |
| 20260508083534 | 53 | 229 | 3.0 | 5.0 | 0.00 | 0.00 | 0.00 | 63 | 1013.3 |
| 20260508083132 | 53 | 234 | 1.0 | 4.0 | 0.00 | 0.00 | 0.00 | 63 | 1013.3 |
| 20260508082538 | 53 | 240 | 2.0 | 4.0 | 0.00 | 0.00 | 0.00 | 63 | 1013.3 |
| 20260508082037 | 54 | 225 | 2.0 | 4.0 | 0.00 | 0.00 | 0.00 | 62 | 1013.3 |
| 20260508081651 | 54 | 239 | 2.0 | 4.0 | 0.00 | 0.00 | 0.00 | 61 | 1013.1 |
| 20260508081023 | 54 | 224 | 3.0 | 4.0 | 0.00 | 0.00 | 0.00 | 62 | 1013.2 |
| 20260508080525 | 54 | 219 | 3.0 | 4.0 | 0.00 | 0.00 | 0.00 | 62 | 1013.1 |
| 20260508080047 | 54 | 242 | 2.0 | 4.0 | 0.00 | 0.00 | 0.00 | 62 | 1013.3 |
| 20260508075518 | 54 | 239 | 2.0 | 4.0 | 0.00 | 0.00 | 0.00 | 61 | 1013.2 |
| 20260508075023 | 54 | 223 | 3.0 | 4.0 | 0.00 | 0.00 | 0.00 | 61 | 1013.3 |
| 20260508074635 | 54 | 230 | 2.0 | 4.0 | 0.00 | 0.00 | 0.00 | 61 | 1013.2 |
| 20260508074111 | 55 | 233 | 2.0 | 5.0 | 0.00 | 0.00 | 0.00 | 60 | 1013.1 |
| 20260508073517 | 55 | 252 | 2.0 | 5.0 | 0.00 | 0.00 | 0.00 | 60 | 1013.1 |
| 20260508073140 | 55 | 223 | 3.0 | 5.0 | 0.00 | 0.00 | 0.00 | 59 | 1013.1 |
| 20260508072531 | 56 | 225 | 3.0 | 5.0 | 0.00 | 0.00 | 0.00 | 59 | 1013.1 |
| 20260508072023 | 56 | 250 | 3.0 | 5.0 | 0.00 | 0.00 | 0.00 | 58 | 1013.0 |
| 20260508071632 | 56 | 228 | 3.0 | 5.0 | 0.00 | 0.00 | 0.00 | 58 | 1013.0 |
| 20260508071027 | 56 | 211 | 2.0 | 5.0 | 0.00 | 0.00 | 0.00 | 58 | 1013.0 |
| 20260508070525 | 56 | 238 | 3.0 | 5.0 | 0.00 | 0.00 | 0.00 | 58 | 1013.0 |
| 20260508070049 | 57 | 236 | 2.0 | 5.0 | 0.00 | 0.00 | 0.00 | 56 | 1013.0 |
| 20260508065537 | 56 | 204 | 3.0 | 5.0 | 0.00 | 0.00 | 0.00 | 58 | 1013.1 |
| 20260508065030 | 56 | 214 | 3.0 | 5.0 | 0.00 | 0.00 | 0.00 | 59 | 1013.1 |